Regional Weather Roundup
Issued by NWS

Home | Current Version | Previous Version | Graphics & Text | Print | Product List | Glossary Off
Versions: 1 2 3 4 5 6 7 8 9 10 11 12 13 14 15 16 17 18 19 20 21 22 23 24 25 26 27 28 29 30 31 32 33 34 35 36 37 38 39 40 41 42 43 44 45 46 47 48 49 50

000
ASUS43 KIND 300109
RWRIN

WEATHER ROUNDUP FOR INDIANA
NATIONAL WEATHER SERVICE INDIANAPOLIS IN
900 PM EDT WED JUL 29 2015

NOTE: "FAIR" INDICATES FEW OR NO CLOUDS BELOW 12,000 FEET WITH NO
SIGNIFICANT WEATHER AND/OR OBSTRUCTIONS TO VISIBILITY.

* - STATION DOES NOT REPORT WEATHER SUCH AS PRECIPITATION OR FOG.

+ - STATION NOT QUALITY CONTROLLED BY THE NATIONAL WEATHER SERVICE.
    USE DATA WITH CAUTION...ESPECIALLY DEWPOINT AND RELATIVE
    HUMIDITY OBSERVATIONS.

INZ001>003-010>013-019-020-300200-
NORTHWEST INDIANA

CITY           SKY/WX    TMP DP  RH WIND       PRES   REMARKS
GARY /AIRPORT/ PTCLDY    79  52  38 W13       29.98R
KNOX *+        CLEAR     73  61  64 NW5       29.97R
LA PORTE +     CLEAR     76  63  64 CALM      29.99R
MICHIGAN CITY+ CLEAR     73  61  64 CALM      29.98R
MONTICELLO +   PTCLDY    76  59  56 NW9       29.98R
RENSSELAER +   CLEAR     75  59  57 W7        29.99S
VALPARAISO     CLEAR     75  56  51 W9        29.99R

$$

LMZ046-743>745-300200-
SOUTHERN LAKE MICHIGAN

STATION/POSITION TIME  TEMP    WIND        PRES    WAVE
                       AIR SEA DIR/SP/G            HT
                 (UTC) (F)     (DEG/KT/KT) (MB)    (FT)
BURNS HARBOR     0000   80     280/  9/ 11 1014.9S
MICHIGAN CITY    0000   78     240/  5/  5   N/A
5NW MICH CITY    0100   78 76  300/  8/ 10   N/A     1

$$

INZ004-005-014>016-021>024-300200-
NORTH CENTRAL INDIANA

CITY           SKY/WX    TMP DP  RH WIND       PRES   REMARKS
ELKHART        CLEAR     75  55  50 W3        29.97S
GOSHEN         CLEAR     70  59  68 W6        29.97R
LOGANSPORT +   PTCLDY    77  54  44 NW7       29.98R
PERU/GRISSOM   PTCLDY    80  65  58 NW12      29.97R
ROCHESTER +    CLEAR     79  66  65 CALM      29.98R
SOUTH BEND     CLEAR     75  59  57 W6        29.98R
WARSAW +       CLEAR     75  55  50 NW6       29.97S

$$

INZ006>009-017-018-025>027-300200-
NORTHEAST INDIANA

CITY           SKY/WX    TMP DP  RH WIND       PRES   REMARKS
ANGOLA *+      CLEAR     75  70  83 NW6       29.96S
AUBURN +       CLEAR     77  55  47 NW6       29.97R
FORT WAYNE     PTCLDY    79  62  56 NW7       29.97R
HUNTINGTON +   PTCLDY    79  64  60 NW7       29.97R

$$

INZ028-029-035-036-043>045-051>053-300200-
WEST CENTRAL INDIANA

CITY           SKY/WX    TMP DP  RH WIND       PRES   REMARKS
CRAWFORDSVL +  MOCLDY    74  64  69 NW7         N/A
GREENCASTLE +  MOCLDY    79  63  57 NW7       30.01R
LAFAYETTE      MOCLDY    74  59  59 NW8       29.99R
TERRE HAUTE    CLOUDY    80  67  64 N7        30.00R

$$

INZ030>032-037>040-046>048-054>057-064-065-300200-
CENTRAL INDIANA

CITY           SKY/WX    TMP DP  RH WIND       PRES   REMARKS
COLUMBUS       CLEAR     81  73  78 W5        29.97R
FRANKFORT +    MOCLDY    77  65  65 W7        30.02R
INDIANAPOLIS   MOCLDY    82  66  58 NW16G23   29.98R
-EAGLE CREEK   MOCLDY    81  66  60 NW14      29.98R
KOKOMO *+      PTCLDY    81  64  57 NW14      29.97R
MARION +       PTCLDY    80  73  81 N6        29.97R
MT COMFORT *+  MOCLDY    81  77  89 NW7       29.98R
SHELBYVILLE    CLOUDY    83  75  77 NW6       29.96R
ZIONSVILLE +   MOCLDY    80  66  62 NW9       30.00R

$$

INZ033-034-041-042-049-050-058-059-300200-
EAST CENTRAL INDIANA

CITY           SKY/WX    TMP DP  RH WIND       PRES   REMARKS
MUNCIE         MOCLDY    81  75  82 NW7       29.97R

$$

INZ060-061-067>069-081>083-085>088-300200-
SOUTHWEST INDIANA

CITY           SKY/WX    TMP DP  RH WIND       PRES   REMARKS
EVANSVILLE     CLOUDY    83  76  79 NW6       30.00R
HUNTINGBURG *+ MOCLDY    81  73  78 W5        30.00R
WASHINGTON +   CLOUDY    80  76  88 NW3       29.99R

$$

INZ062-063-066-070>080-084-089>092-300200-
SOUTH CENTRAL AND SOUTHEAST INDIANA

CITY           SKY/WX    TMP DP  RH WIND       PRES   REMARKS
BLOOMINGTON    MOCLDY    81  75  82 NW5       29.99R
MADISON *+     CLOUDY    75  73  94 CALM      30.01R
NORTH VERNON + CLOUDY    77  77 100 S3        29.98R
SEYMOUR +      CLOUDY    79  77  94 SW5       29.97R

$$



USA.gov is the U.S. government's official web portal to all federal, state and local government web resources and services.